Regional Weather Roundup
Issued by NWS Grand Forks, ND

Home | Current Version | Previous Version | Text Only | Print | Product List | Glossary Off
Versions: 1 2 3 4 5 6 7 8 9 10 11 12 13 14 15 16 17 18 19 20 21 22 23 24 25 26 27 28 29 30 31 32 33 34 35 36 37 38 39 40 41 42 43 44 45 46 47 48 49 50

000
ASUS43 KFGF 260531
RWRFGF
PRAIRIE TO PINES  WEATHER ROUNDUP
NATIONAL WEATHER SERVICE EASTERN NORTH DAKOTA/GRAND FORKS ND
1200 AM CDT WED APR 26 2017

 **SATELLITE DATA USED TO AUGMENT SKY COVER AT AUTOMATED STATIONS**
 *****  WEATHER ACROSS EASTERN NORTH DAKOTA  *****

CITY           SKY/WX    TMP DP  RH WIND       PRES   REMARKS
GRAND FORKS    CLOUDY    33  27  78 NE21G29   29.89F WCI  21
GRAND FRKS AFB CLOUDY    32  26  78 NE16      29.90F WCI  21
DEVILS LAKE    FAIR      32  26  78 NE13      29.92F WCI  22
FARGO          CLOUDY    33  28  81 N18G30    29.79F WCI  22
WAHPETON ARPT  CLOUDY    32  30  93 N17G24    29.74S WCI  21
$$

 ***** WEATHER ACROSS CENTRAL AND WESTERN NORTH DAKOTA  *****

CITY           SKY/WX    TMP DP  RH WIND       PRES   REMARKS
BISMARCK       CLOUDY    37  28  70 N10       29.92S
MINOT          CLOUDY    33  26  75 N7        29.97S
JAMESTOWN      CLOUDY    32  27  81 NE22G28   29.83F WCI  19
MINOT AFB      CLOUDY    34  24  66 NE17      29.97S WCI  23
GARRISON         N/A     33  25  72 NE7       29.95S
WILLISTON      CLOUDY    36  24  62 NE6       29.99S
DICKINSON      CLOUDY    31  25  78 NW7       29.91F WCI  24
HETTINGER      CLOUDY    31  25  78 NW9       29.92F WCI  23
$$

 *****  OTHER AIRPORT OBSERVATIONS IN OUR AREA  *****

CITY           SKY/WX    TMP DP  RH WIND       PRES   REMARKS
WALHALLA       NOT AVBL
GRAFTON AIRPOR CLOUDY    32  27  80 NE17      29.94F WCI  21
VALLEY CITY AR CLOUDY    30  30 100 NE22G31   29.83F WCI  17
CANDO          NOT AVBL
CAVALIER APRT  FAIR      32  25  74 NE15      29.95F WCI  22
GWINNER        CLOUDY    32  30  93 MISG      29.77F
SHEYENNE NWR     N/A     32  28  84 N17       29.95S WCI  21
ROLLA          FAIR      28  21  74 N17       29.96S WCI  16
 ***** THE ABOVE OBSERVATIONS ARE NON NWS ARE NOT QUALITY
       CONTROLLED AND MAY MIS-REPORT RAIN FOR SNOW...
$$

  *****  WEATHER ACROSS NORTHERN MINNESOTA  *****

CITY           SKY/WX    TMP DP  RH WIND       PRES   REMARKS
FLAG ISLAND    CLOUDY    28  21  74 NE21G28   29.95S WCI  15
WARROAD        CLOUDY    30  25  80 NE18G31   29.93S WCI  18
ROSEAU         CLOUDY    30  25  80 NE21G28   29.92S WCI  17
HALLOCK        CLOUDY    32  27  80 NE14      29.94F WCI  22
THF RVR FALLS  CLOUDY    30  25  81 NE17G26   29.86F WCI  18
BAUDETTE       CLOUDY    28  20  71 NE22G29   29.90S WCI  14
WASKISH        CLOUDY    28  25  86 NE15G23   29.84F WCI  17
CROOKSTON      CLOUDY    32  27  80 NE14G25   29.87F WCI  22
STEPHEN NDAWN    N/A     30  27  86 NE17        N/A  WCI  18
GREENBUSH NDAW   N/A     30  27  86 NE15        N/A  WCI  19
$$
  *****  WEATHER ACROSS CENTRAL AND WEST MINNESOTA  *****

CITY           SKY/WX    TMP DP  RH WIND       PRES   REMARKS
FOSSTON        CLOUDY    28  27  93 N14       29.81S WCI  17
BEMIDJI        MIX PCPN  29  27  93 NE14G21   29.78F WCI  18
PARK RAPIDS    FRZ RAIN  32  26  78 NE15G22   29.73F WCI  22
ELBOW LAKE     LGT RAIN  35  34  97 NE10      29.70S
WADENA         MIX PCPN  30  30 100 NE15G22   29.69F WCI  19
DETROIT LAKES  MIX PCPN  32  32 100 NE14      29.75S WCI  22
MOORHEAD       DRIZZLE   32  28  86 N17       29.79F WCI  21
FERGUS FALLS   DRIZZLE   34  34 100 NE13G20   29.72F WCI  25
MORRIS MN      DRIZZLE   37  36  93 N18       29.66F
STAPLES        LGT RAIN  30  30 100 N10G16    29.69F WCI  21
$$
  *****  WEATHER ELSEWHERE ACROSS MINNESOTA  *****

CITY           SKY/WX    TMP DP  RH WIND       PRES   REMARKS
DULUTH         LGT RAIN  37  34  89 NE15G26   29.71F
INTRNTL FALLS  CLOUDY    26  20  77 NE17G24   29.88F WCI  13
ELY            LGT SNOW  27  25  93 NE10G20   29.81S WCI  17
CLOQUET        LGT RAIN  37  34  87 NE17G26   29.69F
WHEATON        MIX PCPN  34  32  93 N17G24    29.73F WCI  23
BRAINERD       MIX PCPN  33  31  92 N18G25    29.69F WCI  22
HIBBING        FRZ RAIN  29  28  96 NE9G18    29.77S FOG     WCI  20
ALEXANDRIA     LGT RAIN  35  34  96 NE15G25   29.66F
SAINT CLOUD    LGT RAIN  44  43  96 NE15G24   29.58F
MINNEAPOLIS    CLOUDY    51  48  89 N12       29.52F
$$

  *****  WEATHER ACROSS SOUTH DAKOTA  *****

CITY           SKY/WX    TMP DP  RH WIND       PRES   REMARKS
SIOUX FALLS    CLOUDY    37  37 100 N16G24    29.65F
BROOKINGS      LGT RAIN  34  33  96 N14       29.66F WCI  25
WATERTOWN      CLOUDY    32  31  96 N17G24    29.68F WCI  21
HURON          CLOUDY    33  31  92 N15       29.76F WCI  23
SISSETON         N/A     33  32  96 N17       29.73F WCI  22
ABERDEEN       CLOUDY    32  27  81 N20G28    29.79F WCI  20
MITCHELL       CLOUDY    34  31  88 N18G24    29.76S WCI  23
PIERRE         FLURRIES  32  28  85 NW13      29.84F WCI  22
MOBRIDGE       CLOUDY    34  25  69 N18G25    29.84S WCI  23
RAPID CITY     CLOUDY    28  25  88 N18       29.91F WCI  15
$$

  *****  SOME WEATHER IN NEARBY STATES *****

CITY           SKY/WX    TMP DP  RH WIND       PRES   REMARKS
GLASGOW MT     CLOUDY    38  23  55 E16       29.93F
GREAT FALLS MT CLOUDY    39  37  92 SW7       29.84F
CHEYENNE WY    CLOUDY    27  23  85 N10       29.84R WCI  17
SCOTTSBLUFF NE CLOUDY    31  25  78 NW6       29.87F
OMAHA NE       CLOUDY    43  38  82 NW16G24   29.59F
DES MOINES IA  CLOUDY    50  45  83 NW20      29.50R
DAVENPORT IA   FAIR      69  49  48 SE18      29.44F
CHICAGO IL     MOCLDY    67  52  58 S10       29.55F
EAU CLAIRE WI  RAIN      55  54  96 NE14      29.52F FOG
LA CROSSE WI   CLOUDY    58  54  86 NW7       29.47F
$$

  *****  SOME NATIONAL WEATHER *****

CITY           SKY/WX    TMP DP  RH WIND       PRES   REMARKS
LA GUARDIA NY  CLOUDY    53  51  93 NE21      29.80F FOG
RALEIGH NC     MOCLDY    61  58  90 NW5       29.76R
ATLANTA GA     FAIR      63  56  78 SW3       29.79R
NEW ORLEANS LA FAIR      68  61  78 S7        29.76F
OKLAHOMA CITY  MOCLDY    59  56  89 N13       29.45S
ALBUQUERQUE NM FAIR      47  36  65 S7        29.80R
SALT LAKE CITY FAIR      46  38  73 SE9       29.93R
LOS ANGELES CA MOCLDY    72  34  24 N18G28    29.89R
BOISE ID       CLOUDY    52  33  48 W10       29.91R
SEATTLE WA     LGT RAIN  49  47  93 S6        29.77F
$$

*** WEATHER ACROSS MANITOBA...SASKATCHEWAN AND ONTARIO ***
                ***ONTARIO***

CITY           SKY/WX    TMP DP  RH WIND       PRES   REMARKS
GERALDTON      LGT SNOW  16  12  86 NE17G24   30.02S WCI   0
THUNDER BAY    FRZ RAIN  27  23  86 NE13      29.87F WCI  16
SIOUX LOOKOUT  FLURRIES  21  16  79 NE7       30.02S WCI  13
TORONTO        PTCLDY    50  46  87 E9        29.83F
BIG TROUT LK   CLEAR     14   5  67 E6        30.30S WCI   5
PICKLE LAKE    NOT AVBL
DRYDEN         CLOUDY    23  19  86 NE17G28   29.97F WCI   9
KENORA         CLOUDY    27  21  80 NE15G28   29.96F WCI  15
$$
                *** MANITOBA***

CITY           SKY/WX    TMP DP  RH WIND       PRES   REMARKS
BRANDON        MOCLDY    30  16  55 NE15      30.02F WCI  19
DAUPHIN        CLEAR     23  18  80 NE7       30.12F WCI  15
ISLAND LAKE    CLEAR     19   3  49 NE8       30.26  WCI   9
PILOT MOUND      N/A     32  23  69 N12         N/A  WCI  23
THE PAS        CLEAR     25   9  50 E7        30.21R WCI  17
THOMPSON       CLEAR     14  -6  41 E3        30.29S
WINNIPEG       PTCLDY    34  23  64 E10       30.01R
LYNN LAKE      CLEAR     19   5  53 S6        30.19F WCI  11
CHURCHILL      CLEAR      0  -6  78 S13       30.33F WCI -18
GILLAM         CLEAR      3  -4  72 SE5       30.35S WCI  -6
$$
                ***SASKATCHEWAN***

CITY           SKY/WX    TMP DP  RH WIND       PRES   REMARKS
ESTEVAN        PTCLDY    30  21  69 E10       30.00S WCI  21
KINDERSLEY     LGT SNOW  28  28 100 E16       29.93F WCI  17
LLOYDMINSTER   LGT SNOW  28  28 100 E13G18    29.99  WCI  18
PRINCE ALBERT  MOCLDY    30  18  59 E8        30.08F WCI  23
REGINA         MOCLDY    34  23  64 NE9       30.02F
YORKTON        CLEAR     25  19  80 E3        30.08S
N. BATTLEFORD  FLURRIES  30  25  80 SE13      30.06S WCI  20
LA RONGE       PTCLDY    30   7  37 SE9       30.11F WCI  22
SASKATOON      CLOUDY    34  21  60 E8        30.05F
SWIFT CURRENT  CLOUDY    32  27  80 E14       29.91F WCI  22
$$
NOTE: THESE ARE AUTOMATED STATIONS WITH LIMITED QUALITY CONTROL
      "FAIR" INDICATES FEW OR NO CLOUDS BELOW 12,000 FEET WITH NO
      SIGNIFICANT WEATHER AND/OR OBSTRUCTIONS TO VISIBILITY.
      SKY/WX - SKY CONDITION AND SIGNIFICANT WEATHER.
      TMP - AIR TEMPERATURE.    DP   - DEWPOINT TEMPERATURE.
      RH  - RELATIVE HUMIDITY.  PRES - PRESSURE.
      HX  - HEAT INDEX.         WCI  - WIND CHILL INDEX.
$




USA.gov is the U.S. government's official web portal to all federal, state and local government web resources and services.